Starlink 11478

operational
NORAD ID: 62557 Int'l Des: 2025-006 Owner: SPXS Country: US Constellation: starlink
LEOCIRCULAR

About Starlink 11478

Description loading...

Live Position

Loading 3D Globe...

Upcoming Passes

Altitude History

Altitude vs Time

uPlot chart will show altitude changes over time

Two-Line Element Set

1 62557U 25006D 25346.90746618 .00374241 00000-0 27719-2 0 9998
2 62557 42.9981 303.0054 0001473 269.7155 90.3544 15.71000956 52955
Epoch: Dec 12, 2025 • Age: 16 hours

Current Status

Altitude 356.3 km
Velocity 7.70 km/s
Sub-Earth Point -11.24°S, 159.32°W
Launch Date Jan 10, 2025
Age 0.9 years
Type internet

Technical Details

Classification Payload
Mass 960.00 kg
Dry Mass 910.00 kg
Total Mass 960.00 kg
Length 0.30 m
Diameter 4.10 m
Span 29.00 m
Shape Box + pan
Manufacturer SPXS
Bus Type Starlink V2MD
Phase Status In Orbit
Owner/State SPXS/US

Large Constellations

Loading constellations...